QPF
0.04 0.04 0.04 0.03 0.04 0.04 0.03 0.05 0.06 0.05 0.04 0.04 0.03 0.04 0.03 0.02 0.04 0.04 0.06 0.07 0.07 0.09 0.11 0.10 0.12 0.14 0.14 0.14 0.13 0.14 0.16 0.17 0.15 0.12 0.10 0.09 0.08 0.09
0.06 0.05 0.05 0.03 0.02 0.01 0.01 0.02 0.03 0.04 0.04 0.04 0.04 0.05 0.03 0.03 0.04 0.03 0.04 0.05 0.06 0.08 0.10 0.10 0.11 0.13 0.15 0.16 0.16 0.16 0.14 0.13 0.14 0.15 0.13 0.11 0.10 0.09
0.06 0.05 0.04 0.03 0.02 0.01 0.02 0.02 0.03 0.05 0.06 0.05 0.03 0.03 0.03 0.03 0.04 0.04 0.03 0.04 0.05 0.08 0.08 0.08 0.08 0.10 0.10 0.11 0.11 0.10 0.10 0.10 0.11 0.12 0.14 0.15 0.14 0.12
0.07 0.06 0.04 0.03 0.03 0.02 0.02 0.01 0.01 0.02 0.03 0.02 0.02 0.02 0.03 0.05 0.03 0.04 0.04 0.04 0.04 0.06 0.05 0.06 0.06 0.06 0.05 0.05 0.06 0.06 0.07 0.08 0.10 0.10 0.11 0.13 0.15 0.14
0.09 0.06 0.05 0.05 0.03 0.03 0.02 0.01 0.01 0.01 0.01 0.01 0.01 0.02 0.02 0.03 0.03 0.03 0.04 0.04 0.03 0.02 0.03 0.04 0.05 0.05 0.05 0.05 0.05 0.06 0.08 0.09 0.09 0.10 0.11 0.11 0.10 0.11
0.06 0.05 0.04 0.04 0.03 0.03 0.03 0.02 0.02 0.01 0.01 0.01 0.01 0.02 0.01 0.02 0.01 0.01 0.02 0.02 0.01 0.02 0.02 0.02 0.02 0.03 0.03 0.03 0.04 0.05 0.06 0.06 0.06 0.07 0.08 0.08 0.09 0.10
0.05 0.04 0.03 0.03 0.03 0.04 0.04 0.04 0.03 0.02 0.01 0.01 0.01 0.02 0.02 0.02 0.02 0.01 0.01 0.01 0.02 0.02 0.01 0.01 0.01 0.01 0.02 0.03 0.03 0.03 0.03 0.04 0.04 0.04 0.05 0.06 0.07 0.09
0.05 0.03 0.03 0.03 0.03 0.02 0.03 0.03 0.03 0.03 0.02 0.02 0.01 0.01 0.01 0.01 0.02 0.01 0.01 0.01 0.01 0.01 0.01 0.01 0.01 0.01 0.01 0.01 0.02 0.02 0.02 0.03 0.04 0.04 0.05 0.05 0.05 0.05
0.04 0.04 0.03 0.04 0.05 0.04 0.03 0.03 0.02 0.03 0.04 0.04 0.04 0.03 0.02 0.02 0.01 0.01 0.01 0.01 0.01 0.01 0.02 0.01 0.01 0.01 0.01 0.01 0.02 0.02 0.02 0.04 0.05 0.05 0.05 0.06 0.06 0.06
0.05 0.03 0.03 0.03 0.04 0.04 0.03 0.03 0.02 0.03 0.03 0.03 0.03 0.03 0.03 0.03 0.03 0.02 0.02 0.01 0.01 0.01 0.01 0.01 0.01 0.01 0.01 0.01 0.01 0.02 0.02 0.02 0.03 0.04 0.04 0.05 0.05 0.05
0.04 0.04 0.04 0.05 0.05 0.05 0.03 0.02 0.02 0.02 0.02 0.02 0.02 0.03 0.03 0.04 0.04 0.04 0.03 0.03 0.02 0.01 0.01 0.01 0.02 0.02 0.02 0.01 0.02 0.03 0.03 0.03 0.02 0.03 0.03 0.04 0.04 0.04
0.03 0.03 0.04 0.04 0.05 0.04 0.02 0.01 0.01 0.01 0.01 0.02 0.02 0.02 0.03 0.04 0.05 0.05 0.05 0.06 0.05 0.05 0.04 0.04 0.05 0.05 0.05 0.04 0.03 0.03 0.02 0.02 0.02 0.02 0.03 0.04 0.05 0.05
0.03 0.03 0.02 0.02 0.02 0.01 0.01 0.01 0.01 0.01 0.01 0.01 0.01 0.01 0.02 0.02 0.03 0.04 0.04 0.04 0.05 0.05 0.05 0.05 0.06 0.05 0.06 0.06 0.04 0.03 0.02 0.02 0.02 0.03 0.04 0.05 0.06 0.07
0.03 0.03 0.03 0.02 0.01 0.01 0.01 0.01 0.01 0.01 0.01 0.01 0.02 0.02 0.02 0.02 0.02 0.03 0.04 0.04 0.03 0.03 0.03 0.02 0.02 0.03 0.04 0.03 0.02 0.02 0.02 0.02 0.02 0.02 0.02 0.03 0.04 0.04
0.04 0.04 0.03 0.02 0.01 0.01 0.01 0.01 0.02 0.02 0.01 0.01 0.01 0.01 0.02 0.03 0.04 0.05 0.07 0.08 0.07 0.07 0.07 0.05 0.04 0.03 0.03 0.02 0.02 0.03 0.02 0.02 0.02 0.01 0.01 0.01 0.02 0.02
0.03 0.03 0.02 0.02 0.01 0.01 0.01 0.01 0.01 0.02 0.02 0.01 0.01 0.01 0.02 0.03 0.04 0.05 0.06 0.06 0.06 0.05 0.05 0.05 0.04 0.03 0.03 0.03 0.03 0.03 0.02 0.02 0.01 0.01 0.01 0.02 0.02 0.02
0.03 0.02 0.02 0.02 0.02 0.02 0.01 0.01 0.01 0.02 0.02 0.02 0.02 0.02 0.02 0.02 0.03 0.04 0.04 0.04 0.04 0.03 0.03 0.03 0.03 0.03 0.03 0.03 0.03 0.02 0.02 0.02 0.01 0.02 0.02 0.02 0.03 0.03
0.04 0.04 0.04 0.03 0.03 0.03 0.03 0.02 0.02 0.02 0.02 0.02 0.02 0.01 0.01 0.01 0.01 0.02 0.03 0.03 0.03 0.03 0.03 0.03 0.02 0.02 0.03 0.03 0.02 0.02 0.02 0.02 0.02 0.02 0.02 0.02 0.02 0.04
0.03 0.03 0.04 0.04 0.04 0.04 0.04 0.03 0.03 0.03 0.02 0.02 0.02 0.01 0.01 0.01 0.01 0.01 0.01 0.01 0.02 0.02 0.02 0.03 0.03 0.03 0.02 0.02 0.01 0.01 0.01 0.01 0.02 0.02 0.02 0.02 0.02 0.02
0.04 0.04 0.04 0.04 0.04 0.03 0.03 0.03 0.03 0.03 0.03 0.03 0.02 0.01 0.01 0.01 0.01 0.01 0.01 0.01 0.01 0.01 0.01 0.01 0.02 0.03 0.03 0.03 0.02 0.02 0.02 0.02 0.01 0.02 0.02 0.02 0.01 0.02
0.06 0.05 0.04 0.03 0.03 0.02 0.03 0.03 0.03 0.03 0.02 0.02 0.02 0.02 0.02 0.02 0.01 0.01 0.01 0.01 0.01 0.01 0.01 0.01 0.01 0.02 0.02 0.02 0.02 0.02 0.02 0.03 0.03 0.02 0.02 0.03 0.03 0.02
0.04 0.03 0.02 0.01 0.01 0.02 0.02 0.02 0.02 0.02 0.02 0.02 0.01 0.01 0.01 0.01 0.01 0.01 0.01 0.01 0.01 0.01 0.01 0.01 0.01 0.02 0.02 0.03 0.03 0.03 0.04 0.05 0.05 0.05 0.04 0.04 0.04 0.03
0.02 0.01 0.01 0.01 0.02 0.02 0.02 0.02 0.02 0.02 0.02 0.03 0.02 0.02 0.01 0.01 0.01 0.01 0.01 0.01 0.01 0.01 0.01 0.01 0.02 0.02 0.03 0.04 0.05 0.05 0.05 0.04 0.03 0.02 0.02 0.01 0.01 0.01
MSLP
1021.03 1021.12 1021.35 1021.70 1022.12 1022.59 1023.08 1023.54 1023.97 1024.36 1024.71 1025.01 1025.27 1025.48 1025.62 1025.70 1025.71 1025.66 1025.57 1025.47 1025.37 1025.31 1025.29 1025.32 1025.36 1025.39 1025.36 1025.24 1025.00 1024.64 1024.19 1023.67 1023.15 1022.67 1022.30 1022.07 1021.98 1022.03
1021.89 1021.95 1022.11 1022.36 1022.67 1023.03 1023.41 1023.80 1024.19 1024.58 1024.96 1025.33 1025.67 1025.96 1026.19 1026.34 1026.40 1026.39 1026.31 1026.20 1026.08 1026.00 1025.95 1025.95 1025.98 1026.02 1026.02 1025.95 1025.79 1025.52 1025.17 1024.76 1024.34 1023.95 1023.64 1023.44 1023.36 1023.37
1022.80 1022.85 1022.96 1023.14 1023.35 1023.61 1023.89 1024.20 1024.53 1024.90 1025.28 1025.68 1026.06 1026.41 1026.70 1026.90 1027.01 1027.02 1026.95 1026.84 1026.71 1026.59 1026.52 1026.50 1026.51 1026.54 1026.56 1026.53 1026.43 1026.24 1025.99 1025.68 1025.35 1025.05 1024.81 1024.65 1024.58 1024.58
1023.73 1023.78 1023.88 1024.00 1024.14 1024.32 1024.51 1024.75 1025.02 1025.34 1025.71 1026.10 1026.50 1026.87 1027.18 1027.41 1027.54 1027.57 1027.51 1027.39 1027.25 1027.12 1027.02 1026.98 1026.97 1026.99 1027.01 1027.00 1026.93 1026.80 1026.61 1026.38 1026.13 1025.90 1025.72 1025.60 1025.55 1025.54
1024.62 1024.70 1024.79 1024.89 1025.00 1025.11 1025.24 1025.40 1025.62 1025.89 1026.22 1026.58 1026.96 1027.33 1027.64 1027.87 1028.00 1028.04 1027.98 1027.87 1027.72 1027.58 1027.48 1027.41 1027.38 1027.38 1027.39 1027.37 1027.31 1027.20 1027.05 1026.86 1026.67 1026.49 1026.35 1026.26 1026.22 1026.22
1025.44 1025.56 1025.66 1025.76 1025.83 1025.91 1025.99 1026.11 1026.27 1026.49 1026.77 1027.09 1027.43 1027.76 1028.04 1028.26 1028.39 1028.42 1028.37 1028.26 1028.13 1027.99 1027.88 1027.80 1027.76 1027.73 1027.72 1027.68 1027.61 1027.50 1027.35 1027.18 1027.00 1026.85 1026.73 1026.66 1026.63 1026.62
1026.17 1026.31 1026.43 1026.52 1026.60 1026.65 1026.71 1026.79 1026.91 1027.08 1027.30 1027.56 1027.85 1028.13 1028.38 1028.56 1028.68 1028.71 1028.67 1028.58 1028.46 1028.34 1028.24 1028.16 1028.10 1028.06 1028.02 1027.96 1027.86 1027.73 1027.57 1027.39 1027.21 1027.06 1026.94 1026.86 1026.83 1026.82
1026.79 1026.93 1027.06 1027.16 1027.23 1027.27 1027.32 1027.37 1027.46 1027.58 1027.76 1027.96 1028.20 1028.42 1028.63 1028.78 1028.87 1028.90 1028.88 1028.81 1028.72 1028.62 1028.54 1028.48 1028.42 1028.37 1028.31 1028.22 1028.10 1027.94 1027.76 1027.56 1027.36 1027.20 1027.06 1026.97 1026.92 1026.90
1027.28 1027.42 1027.54 1027.64 1027.71 1027.76 1027.79 1027.83 1027.89 1027.99 1028.12 1028.28 1028.46 1028.63 1028.79 1028.92 1028.99 1029.02 1029.01 1028.97 1028.91 1028.85 1028.79 1028.75 1028.70 1028.65 1028.58 1028.48 1028.33 1028.16 1027.95 1027.73 1027.52 1027.33 1027.17 1027.06 1026.98 1026.93
1027.64 1027.77 1027.88 1027.98 1028.05 1028.10 1028.14 1028.17 1028.22 1028.30 1028.39 1028.51 1028.65 1028.78 1028.90 1029.00 1029.06 1029.09 1029.10 1029.08 1029.05 1029.02 1028.99 1028.97 1028.94 1028.89 1028.82 1028.71 1028.56 1028.37 1028.15 1027.92 1027.69 1027.48 1027.30 1027.15 1027.04 1026.95
1027.91 1028.02 1028.12 1028.22 1028.29 1028.35 1028.39 1028.43 1028.47 1028.53 1028.61 1028.70 1028.80 1028.90 1028.99 1029.06 1029.12 1029.14 1029.15 1029.15 1029.14 1029.13 1029.13 1029.12 1029.10 1029.06 1029.00 1028.89 1028.74 1028.55 1028.33 1028.09 1027.85 1027.63 1027.43 1027.25 1027.10 1026.98
1028.10 1028.20 1028.31 1028.40 1028.49 1028.55 1028.60 1028.64 1028.68 1028.73 1028.79 1028.85 1028.93 1029.00 1029.07 1029.12 1029.16 1029.19 1029.20 1029.20 1029.20 1029.20 1029.20 1029.20 1029.18 1029.15 1029.09 1028.98 1028.84 1028.66 1028.45 1028.21 1027.98 1027.74 1027.52 1027.32 1027.14 1026.97
1028.24 1028.35 1028.47 1028.57 1028.66 1028.73 1028.78 1028.82 1028.85 1028.89 1028.94 1028.99 1029.04 1029.10 1029.15 1029.18 1029.21 1029.22 1029.22 1029.22 1029.21 1029.20 1029.20 1029.19 1029.16 1029.13 1029.06 1028.96 1028.82 1028.65 1028.45 1028.23 1028.00 1027.76 1027.53 1027.31 1027.10 1026.90
1028.35 1028.48 1028.61 1028.72 1028.82 1028.88 1028.93 1028.96 1028.99 1029.01 1029.04 1029.08 1029.11 1029.15 1029.19 1029.21 1029.22 1029.22 1029.21 1029.19 1029.17 1029.14 1029.11 1029.08 1029.04 1028.98 1028.90 1028.80 1028.67 1028.50 1028.32 1028.10 1027.88 1027.64 1027.41 1027.17 1026.94 1026.72
1028.41 1028.57 1028.72 1028.84 1028.93 1028.99 1029.02 1029.04 1029.04 1029.05 1029.06 1029.08 1029.10 1029.13 1029.16 1029.17 1029.18 1029.16 1029.13 1029.09 1029.04 1028.99 1028.93 1028.86 1028.79 1028.71 1028.61 1028.50 1028.36 1028.20 1028.02 1027.82 1027.60 1027.37 1027.13 1026.89 1026.65 1026.41
1028.41 1028.60 1028.76 1028.88 1028.95 1028.99 1029.00 1028.98 1028.96 1028.95 1028.94 1028.95 1028.96 1028.99 1029.01 1029.02 1029.02 1029.00 1028.96 1028.91 1028.83 1028.75 1028.65 1028.55 1028.44 1028.33 1028.20 1028.07 1027.92 1027.76 1027.58 1027.38 1027.17 1026.95 1026.71 1026.47 1026.23 1025.99
1028.31 1028.51 1028.67 1028.77 1028.82 1028.83 1028.80 1028.76 1028.71 1028.67 1028.65 1028.65 1028.66 1028.69 1028.72 1028.74 1028.74 1028.72 1028.68 1028.61 1028.52 1028.40 1028.28 1028.14 1028.00 1027.85 1027.69 1027.54 1027.37 1027.20 1027.01 1026.82 1026.61 1026.40 1026.17 1025.94 1025.71 1025.48
1028.06 1028.26 1028.40 1028.47 1028.49 1028.46 1028.40 1028.32 1028.25 1028.20 1028.17 1028.17 1028.20 1028.24 1028.28 1028.32 1028.33 1028.32 1028.28 1028.21 1028.10 1027.96 1027.81 1027.65 1027.47 1027.29 1027.11 1026.92 1026.74 1026.55 1026.36 1026.17 1025.96 1025.76 1025.55 1025.34 1025.12 1024.92
1027.65 1027.82 1027.92 1027.96 1027.94 1027.88 1027.79 1027.70 1027.61 1027.56 1027.54 1027.55 1027.59 1027.65 1027.72 1027.78 1027.81 1027.81 1027.78 1027.70 1027.59 1027.44 1027.27 1027.08 1026.88 1026.67 1026.46 1026.25 1026.05 1025.84 1025.64 1025.45 1025.25 1025.06 1024.87 1024.68 1024.50 1024.32
1027.06 1027.19 1027.26 1027.26 1027.20 1027.12 1027.02 1026.92 1026.84 1026.80 1026.79 1026.83 1026.90 1026.98 1027.07 1027.15 1027.19 1027.21 1027.18 1027.10 1026.98 1026.83 1026.64 1026.44 1026.21 1025.98 1025.75 1025.52 1025.29 1025.08 1024.87 1024.67 1024.48 1024.30 1024.13 1023.97 1023.82 1023.68
1026.31 1026.40 1026.42 1026.39 1026.32 1026.23 1026.12 1026.04 1025.98 1025.97 1025.99 1026.05 1026.15 1026.25 1026.36 1026.44 1026.50 1026.52 1026.48 1026.41 1026.28 1026.12 1025.92 1025.70 1025.46 1025.21 1024.96 1024.71 1024.47 1024.24 1024.02 1023.82 1023.64 1023.47 1023.32 1023.19 1023.07 1022.96
1025.45 1025.49 1025.48 1025.43 1025.35 1025.26 1025.18 1025.12 1025.09 1025.11 1025.16 1025.25 1025.36 1025.48 1025.59 1025.67 1025.72 1025.73 1025.69 1025.60 1025.46 1025.29 1025.08 1024.85 1024.60 1024.34 1024.08 1023.81 1023.55 1023.30 1023.08 1022.87 1022.68 1022.52 1022.39 1022.28 1022.20 1022.13
1024.50 1024.50 1024.47 1024.41 1024.34 1024.27 1024.21 1024.19 1024.20 1024.25 1024.33 1024.43 1024.55 1024.66 1024.75 1024.82 1024.84 1024.83 1024.76 1024.66 1024.51 1024.32 1024.11 1023.87 1023.61 1023.34 1023.07 1022.79 1022.52 1022.25 1022.01 1021.79 1021.60 1021.44 1021.32 1021.23 1021.16 1021.12
Thickness
5726 5725 5724 5723 5722 5721 5719 5717 5711 5705 5703 5705 5706 5707 5706 5705 5704 5703 5702 5702 5700 5699 5697 5696 5695 5694 5692 5691 5689 5687 5685 5684 5682 5681 5680 5679 5678 5677
5722 5721 5720 5719 5719 5718 5717 5715 5713 5708 5701 5700 5700 5701 5701 5701 5699 5698 5697 5696 5695 5694 5692 5690 5689 5688 5686 5685 5683 5681 5680 5678 5677 5676 5675 5674 5673 5672
5720 5718 5716 5716 5715 5714 5713 5711 5708 5706 5700 5696 5696 5697 5696 5695 5694 5693 5691 5690 5689 5688 5686 5684 5682 5681 5680 5678 5676 5674 5673 5672 5671 5669 5668 5667 5666 5666
5715 5714 5712 5712 5711 5709 5708 5706 5704 5702 5698 5693 5692 5691 5691 5689 5688 5686 5685 5684 5682 5680 5679 5677 5675 5673 5672 5670 5668 5667 5665 5663 5662 5661 5660 5659 5658 5657
5712 5710 5708 5707 5705 5704 5703 5701 5699 5698 5695 5691 5688 5686 5684 5683 5681 5680 5678 5676 5675 5673 5671 5669 5666 5665 5663 5662 5660 5658 5656 5655 5653 5652 5651 5650 5649 5647
5709 5707 5705 5703 5701 5700 5698 5695 5694 5691 5689 5686 5683 5680 5678 5676 5674 5672 5670 5667 5665 5664 5662 5659 5657 5656 5654 5652 5651 5649 5647 5646 5644 5643 5641 5640 5638 5637
5703 5702 5701 5699 5698 5696 5694 5691 5688 5685 5683 5679 5676 5674 5671 5669 5666 5665 5662 5659 5657 5654 5652 5650 5648 5646 5644 5642 5640 5639 5637 5636 5634 5633 5631 5629 5627 5626
5698 5697 5696 5694 5692 5691 5689 5687 5685 5681 5677 5674 5670 5668 5665 5663 5660 5658 5655 5653 5650 5646 5644 5641 5639 5637 5634 5632 5630 5628 5627 5625 5623 5622 5620 5619 5617 5615
5693 5692 5691 5689 5687 5685 5682 5680 5677 5674 5672 5669 5665 5662 5659 5657 5655 5651 5648 5646 5643 5639 5636 5632 5630 5627 5624 5622 5620 5619 5617 5615 5613 5611 5609 5608 5606 5605
5688 5686 5684 5682 5681 5678 5675 5672 5669 5666 5664 5662 5659 5657 5654 5651 5648 5645 5641 5637 5633 5630 5627 5624 5620 5617 5615 5612 5610 5608 5606 5604 5602 5600 5599 5597 5595 5593
5681 5679 5678 5676 5674 5671 5668 5664 5661 5658 5656 5654 5652 5649 5647 5644 5641 5638 5633 5630 5626 5622 5617 5615 5611 5608 5606 5603 5600 5598 5596 5594 5592 5590 5588 5586 5584 5582
5673 5672 5670 5668 5666 5663 5660 5657 5653 5650 5647 5646 5643 5641 5638 5635 5632 5629 5626 5622 5618 5614 5610 5606 5603 5600 5597 5594 5590 5588 5585 5583 5581 5579 5577 5575 5573 5571
5665 5663 5661 5659 5657 5654 5652 5649 5645 5642 5639 5637 5634 5631 5629 5626 5623 5620 5617 5614 5611 5607 5603 5599 5595 5592 5588 5584 5581 5577 5575 5573 5570 5568 5566 5564 5562 5560
5657 5655 5652 5650 5648 5645 5642 5639 5636 5634 5630 5627 5624 5621 5618 5616 5613 5610 5607 5604 5601 5598 5594 5591 5587 5583 5579 5576 5572 5568 5565 5563 5560 5558 5556 5553 5551 5548
5649 5646 5644 5641 5639 5636 5632 5630 5627 5624 5621 5618 5614 5611 5608 5606 5604 5601 5597 5594 5591 5588 5584 5581 5577 5573 5570 5567 5563 5559 5556 5553 5550 5548 5546 5543 5540 5538
5640 5637 5635 5633 5630 5627 5623 5620 5618 5615 5612 5609 5605 5602 5600 5597 5594 5591 5588 5585 5581 5578 5574 5571 5567 5564 5560 5557 5553 5550 5547 5543 5541 5538 5535 5533 5531 5528
5632 5629 5626 5623 5620 5617 5614 5610 5607 5605 5602 5599 5596 5593 5590 5588 5584 5581 5577 5575 5571 5568 5564 5561 5557 5554 5550 5547 5544 5541 5537 5534 5531 5528 5525 5524 5522 5519
5623 5619 5616 5613 5610 5607 5604 5601 5598 5595 5592 5589 5587 5584 5581 5578 5574 5570 5567 5564 5562 5558 5554 5550 5547 5545 5541 5538 5533 5531 5528 5524 5521 5517 5515 5514 5513 5511
5615 5611 5607 5603 5600 5598 5595 5592 5589 5585 5582 5579 5576 5573 5570 5568 5564 5561 5557 5554 5551 5548 5544 5540 5537 5535 5533 5531 5527 5521 5518 5515 5512 5509 5506 5505 5504 5502
5606 5603 5599 5595 5592 5589 5586 5583 5579 5576 5573 5570 5567 5563 5560 5558 5555 5551 5548 5544 5541 5538 5535 5531 5528 5525 5523 5520 5516 5512 5508 5505 5503 5501 5498 5496 5494 5491
5598 5594 5591 5587 5584 5580 5577 5574 5571 5567 5564 5561 5557 5554 5551 5548 5545 5542 5539 5534 5531 5529 5526 5523 5519 5515 5512 5509 5507 5505 5501 5497 5494 5491 5489 5487 5486 5484
5591 5587 5583 5580 5576 5573 5569 5566 5562 5559 5555 5552 5549 5545 5542 5539 5536 5533 5530 5526 5523 5520 5517 5514 5510 5507 5504 5502 5500 5497 5493 5489 5486 5482 5479 5477 5475 5475
5583 5580 5576 5572 5568 5565 5561 5558 5555 5551 5548 5544 5541 5537 5534 5531 5527 5524 5521 5518 5515 5512 5509 5506 5503 5499 5496 5493 5490 5487 5484 5481 5478 5475 5473 5469 5467 5464